User: anonymous   Login
Location: Caltech
(34.1382°N, 118.1253°W)
Time: 12:12:52
(UTC-07:00)
Language:

GPS 2-04 Rocket1 - Orbit

View from above orbital plane
View from above orbital plane
View from above satellite
View from above satellite

Ground track
Ground track

The orbit data is extracted from the following two-line orbital elements,

1 20303U 89085B   14295.12425519  .00019806  00000-0  91059-3 0  9023
2 20303 035.6337 292.9281 0136796 299.3926 120.5961 15.11490255353099
Epoch (UTC): 22 October 2014 02:58:55
Eccentricity: 0.0136796
inclination: 35.6337°
perigee height: 437 km
apogee height: 626 km
right ascension of ascending node: 292.9281°
argument of perigee: 299.3926°
revolutions per day: 15.11490255
mean anomaly at epoch: 120.5961°
orbit number at epoch: 35309

The dashed part of the orbit path shows where the satellite is in the earth's shadow,  

DLR